Flag for United Kingdom Weather past 2 weeks in Newport, Wales, United Kingdom

Now
59 °F

Light rain. Partly sunny.


Feels Like: 59 °F
Forecast: 52 / 63 °F
Wind: 5 mph from North

Location: Bristol / Lulsgate

Current Time: Aug 30, 2015 at 1:06:09 PM

Latest Report: Aug 30, 2015 at 12:20 PM


Visibility: N/A

Pressure: 30.09 "Hg

Humidity: 88%

Dew point: 55 °F

Location of NewportLocation

Historic Weather in Newport — Graph

°F

Newport temperature yesterday

Maximum temperature yesterday: 66 °F (at 1:20 PM)
Minimum temperature yesterday: 54 °F (at 6:50 AM)
Average temperature yesterday: 60 °F

Past Weeks' High & Low Weather Summary

 TemperatureHumidityPressure
High77 °F (Aug 22, 3:50 PM)100% (Aug 19, 8:20 PM)30.12 "Hg (Aug 19, 8:20 PM)
Low50 °F (Aug 15, 10:50 PM)43% (Aug 17, 3:50 PM)29.50 "Hg (Aug 24, 5:20 AM)
Average59 °F83%29.90 "Hg
* Reported Aug 15 12:20 PM — Aug 30 12:20 PM, Newport, Weather by CustomWeather, © 2015

Note: Actual official high and low records may vary slightly from our data, if they occured in-between our weather recording intervals... More about our weather records

Advertising

Newport weather history for previous 24 hours

 ConditionsComfort  
Time TempWeatherWind HumidityBarometerVisibility
12:20 PM
Sun, Aug 30
59 °FLight rain. Partly sunny.5 mph88%30.09 "HgN/A
11:20 AM59 °FDrizzle. Partly sunny.5 mph88%30.07 "HgN/A
10:50 AM57 °FPartly sunny.7 mph94%30.07 "HgN/A
10:20 AM57 °FPassing clouds.8 mph88%30.07 "HgN/A
9:50 AM57 °FPassing clouds.10 mph88%30.07 "HgN/A
9:20 AM57 °FSunny.9 mph88%30.07 "Hg10 mi
8:50 AM55 °FPassing clouds.7 mph94%30.09 "HgN/A
8:20 AM55 °FPassing clouds.7 mph88%30.09 "HgN/A
7:50 AM55 °FLight rain. Passing clouds.8 mph88%30.09 "HgN/A
7:20 AM55 °FLight rain. Passing clouds.6 mph88%30.07 "HgN/A
6:50 AM57 °FPassing clouds.8 mph82%30.07 "HgN/A
6:20 AM57 °FPassing clouds.6 mph77%30.07 "HgN/A
5:20 AM57 °FClear.3 mph82%30.07 "Hg10 mi
4:20 AM57 °FPassing clouds.6 mph82%30.07 "HgN/A
3:50 AM59 °FClear.6 mph72%30.07 "Hg10 mi
3:20 AM59 °FClear.6 mph77%30.07 "Hg10 mi
2:50 AM59 °FClear.5 mph77%30.07 "Hg10 mi
2:20 AM59 °FClear.3 mph77%30.07 "Hg10 mi
1:50 AM59 °FClear.3 mph77%30.09 "Hg10 mi
1:20 AM57 °FClear.2 mph82%30.09 "Hg10 mi
12:50 AM59 °FClear.3 mph77%30.09 "Hg10 mi
12:20 AM57 °FClear.6 mph82%30.09 "Hg10 mi
11:50 PM
Sat, Aug 29
59 °FClear.2 mph72%30.09 "Hg10 mi
11:20 PM61 °FClear.3 mph68%30.09 "Hg10 mi
10:50 PM59 °FClear.2 mph72%30.09 "Hg10 mi
10:20 PM59 °FClear.3 mph72%30.09 "Hg10 mi
9:50 PM61 °FClear.3 mph68%30.09 "Hg10 mi
9:20 PM59 °FClear.No wind77%30.09 "Hg10 mi
8:50 PM61 °FSunny.3 mph72%30.09 "Hg10 mi
8:20 PM61 °FSunny.No wind72%30.09 "Hg10 mi
7:50 PM61 °FSunny.2 mph72%30.09 "Hg10 mi
7:20 PM63 °FSunny.3 mph73%30.09 "Hg10 mi
6:50 PM63 °FSunny.3 mph73%30.09 "Hg10 mi
6:20 PM63 °FPassing clouds.5 mph73%30.09 "HgN/A
5:50 PM64 °FPassing clouds.3 mph68%30.09 "HgN/A
5:20 PM64 °FPassing clouds.6 mph64%30.09 "HgN/A
4:50 PM64 °FPassing clouds.6 mph64%30.09 "HgN/A
4:20 PM64 °FPassing clouds.6 mph64%30.09 "HgN/A
3:50 PM66 °FPassing clouds.6 mph64%30.09 "HgN/A
3:20 PM66 °FScattered clouds.6 mph64%30.09 "HgN/A
2:50 PM66 °FPassing clouds.7 mph64%30.12 "HgN/A
2:20 PM64 °FScattered clouds.8 mph68%30.12 "HgN/A
1:50 PM64 °FScattered clouds.7 mph68%30.09 "HgN/A
1:20 PM66 °FPassing clouds.7 mph60%30.09 "HgN/A
Weather by CustomWeather, © 2015

See weather overviewHow to use our weather pages